User: anonymous   Login
Location: Unspecified
(0.0000°N, 0.0000°E)
Time: 03:21:19
(UTC+00:00)
Language:

Optus B3 - Orbit

View from above orbital plane
View from above orbital plane
View from above satellite
View from above satellite

Ground track
Ground track

The orbit data is extracted from the following two-line orbital elements,

1 23227U 94055A   14304.64268764 -.00000086  00000-0  00000+0 0  5871
2 23227 005.7812 058.0026 0006640 166.1088 211.4291 01.00273164 73866
Epoch (UTC): 31 October 2014 15:25:28
Eccentricity: 0.0006640
inclination: 5.7812°
perigee height: 35758 km
apogee height: 35814 km
right ascension of ascending node: 58.0026°
argument of perigee: 166.1088°
revolutions per day: 1.00273164
mean anomaly at epoch: 211.4291°
orbit number at epoch: 7386

The dashed part of the orbit path shows where the satellite is in the earth's shadow,  

DLR